Location: Newark
(32.0500°N, 131.1833°E)
Time: 20:21:38
(UTC+00:00)

N. Korean satellite - Visible Passes

Search period start: 23 September 2020 00:00
Search period end: 03 October 2020 00:00
Orbit: 455 x 503 km, 97.2° (Epoch: 22 September)

Date Brightness Start Highest point End Pass type
(mag) Time Alt. Az. Time Alt. Az. Time Alt. Az.
23 Sep 7.9 20:25:11 10° NNE 20:28:40 44° E 20:32:04 10° S visible
24 Sep 9.6 19:59:55 10° NE 20:02:34 19° E 20:05:09 10° SE visible
26 Sep 6.7 20:40:21 10° NNE 20:43:57 79° ESE 20:47:28 10° S visible
27 Sep 8.7 20:14:41 10° NE 20:17:54 31° E 20:21:03 10° SSE visible
28 Sep 9.9 19:49:56 10° ENE 19:51:46 13° E 19:53:35 10° SE visible
30 Sep 7.5 20:29:41 10° NNE 20:33:11 52° E 20:36:36 10° S visible
01 Oct 9.4 20:04:17 10° NE 20:07:05 22° E 20:09:50 10° SSE visible
